{"data":{"norad_id":63649,"epoch":"2026-05-24T19:38:54.698496Z","epoch_age_seconds":88117,"freshness":"FRESH","line1":"1 63649U 25083R   26144.81868864  .00021215  00000+0  77805-3 0  9992","line2":"2 63649  43.0010 294.9431 0001428 265.5965  94.4723 15.27588610 61710","mean_motion":15.2758861,"eccentricity":0.0001428,"inclination_deg":43.001,"raan_deg":294.9431,"arg_perigee_deg":265.5965,"mean_anomaly_deg":94.4723,"bstar":0.00077805,"rev_number":6171,"period_min":94.266217394747,"perigee_km":482.04354103037,"apogee_km":484.00308841626,"semimajor_km":6861.1603147233,"source":"CELESTRAK","updated_at":"2026-05-25T13:38:20.055188Z"}}